Vertical_Velocity
-2 -0 -1 -3 -1 -2 -3 -4 -13 -8 5 -11 -6 -7 -5 -5 -6 -7 -5 -3 -2 -2 -2 -4 -2 -2 -1 -2 -2 -2 -1 -1 2 2 -2 -6 -2 -2
-2 0 -1 -1 -1 -3 -2 -1 -3 -7 -8 -11 -7 -3 -4 -4 -0 -0 3 1 -1 -4 -3 -2 -2 -2 -1 -3 -1 -2 -2 -2 -1 -1 -1 -4 -5 -1
-2 1 -1 -2 0 -2 -1 0 -2 -5 -8 1 2 -5 -3 -5 -3 1 -2 -0 1 -0 -2 -1 1 1 -0 -3 -2 -2 -2 -1 -0 -1 -1 -2 -2 -1
-3 -1 -1 -3 -0 -3 -4 -2 -2 -4 -3 -2 -1 -4 0 -5 -3 1 -1 -3 -1 -1 -1 1 3 2 0 -2 -3 -1 -1 1 -1 -0 -1 -0 -3 -2
-0 -1 -1 -2 -1 -2 -2 -0 -2 -2 -3 -4 -0 -1 -0 -3 -0 -0 -1 -0 -1 -3 -3 2 -2 -1 -1 -2 -0 1 1 -0 -0 0 -0 -1 -2 -2
-1 -2 -2 -2 -2 -1 -2 -0 -1 -2 -1 -3 -0 -1 -1 -3 -0 1 1 -2 -0 -5 -2 -2 -6 2 1 0 0 1 1 1 0 0 -0 -0 -2 -3
-2 -3 -1 0 -0 1 -2 1 0 0 -1 -2 0 0 -2 -1 -2 -0 0 1 -0 -5 2 -6 -4 -3 0 2 -1 -3 -1 -2 -0 -2 -0 -1 -2 -4
1 2 -1 1 -1 1 -2 -0 2 -1 -1 -3 1 0 1 -2 -0 -1 -0 -0 2 -4 7 -4 -0 -6 -0 -1 -0 1 1 -0 -1 -2 -2 -1 0 -2
-1 -1 -2 1 0 -2 1 -0 2 1 -3 -4 3 -0 4 -3 0 -1 -2 0 -1 -3 2 0 0 -5 -2 -1 1 1 1 -2 -4 -3 -1 -2 -2 -1
-2 -0 0 1 3 -2 1 3 1 2 -1 2 3 1 1 1 -0 1 -1 1 1 -1 -5 4 -2 -1 -5 0 -0 2 1 -1 -2 -2 -2 -2 -3 -2
2 3 0 -1 7 3 -5 1 -1 2 -2 1 1 3 2 2 0 2 -2 1 1 3 -9 -0 -6 4 -6 -2 -1 2 -0 -1 -3 -3 -2 -2 -0 -1
-0 7 9 -3 2 2 -2 -1 3 -1 0 1 1 2 2 1 1 1 -0 1 -0 6 -7 3 -3 -1 5 -6 -2 -0 -1 -2 -1 -2 -2 -1 -1 -2
-2 5 9 3 -0 3 -1 2 -2 0 2 -0 1 2 -0 1 0 1 -0 0 1 -1 -3 0 -1 -1 -1 4 -9 -5 -2 -2 -1 -2 -2 -2 -3 -2
-2 -3 3 7 1 1 -1 1 0 -2 2 -0 2 1 -1 0 0 -0 -0 -1 -1 0 -2 -2 1 -3 0 -1 4 -4 -4 0 -1 -1 -2 -3 -3 -2
1 -0 0 5 2 2 -1 1 0 2 1 2 0 0 -1 1 -0 -0 -1 -1 -2 -2 1 0 -0 -1 -3 -0 1 -0 0 -6 2 -1 -1 -2 -2 -3
1 -2 -0 2 5 3 2 -2 -0 2 -1 2 1 -0 -1 -0 0 -0 1 -1 -1 -4 -2 3 1 1 -3 -1 2 -2 0 0 -3 1 0 -1 -1 -3
-3 1 -2 2 1 1 -1 0 -3 1 0 0 2 2 1 0 1 1 1 0 0 -0 -4 -5 -2 1 -1 -0 -0 0 -2 -1 -1 -0 -0 -1 -2 -2
0 -1 1 1 0 -0 -1 -2 2 -1 -2 0 2 1 -0 0 1 -0 1 0 -1 -1 1 -1 -1 -3 1 -0 -0 -0 1 -2 -1 -1 -2 -1 -1 0
-1 -1 1 -1 -1 -1 -1 0 -0 -1 -0 0 1 0 -0 0 -0 -0 0 0 -1 -0 0 0 -1 -0 0 -1 -0 -0 0 -0 0 -2 -2 -0 0 1
-2 -1 -0 0 -0 -1 -1 -1 -0 -1 0 0 1 0 0 1 0 0 0 1 -1 -1 -0 1 -1 -0 -0 -1 -1 -1 -0 0 0 -1 -1 -1 0 1
2 -1 -2 -1 -0 0 -1 -0 -0 -0 -1 1 1 1 0 1 1 1 0 1 -1 -1 -1 -0 -1 -1 0 -0 -1 -0 0 1 1 1 1 -0 1 1
-2 -0 4 3 -0 1 0 0 1 0 0 1 1 1 1 2 1 1 -0 0 -0 -1 -0 -1 -1 -0 0 -0 -0 -1 -1 0 1 -0 -0 0 1 1
1 1 -0 2 4 2 1 1 1 -0 0 1 1 1 0 1 2 -0 0 0 -1 -0 -1 -0 -1 -1 -0 0 -0 0 -0 -0 0 1 0 0 1 2
Height
5647 5638 5629 5620 5610 5601 5591 5581 5570 5562 5555 5540 5529 5517 5506 5496 5486 5477 5470 5465 5460 5455 5452 5449 5447 5445 5443 5442 5441 5440 5440 5441 5443 5445 5446 5450 5455 5462
5632 5623 5614 5605 5595 5585 5574 5562 5550 5540 5533 5520 5509 5498 5487 5477 5467 5460 5454 5449 5444 5440 5437 5435 5432 5431 5428 5427 5425 5424 5424 5424 5426 5428 5430 5433 5437 5443
5618 5609 5599 5589 5578 5566 5556 5545 5534 5523 5513 5505 5495 5482 5471 5460 5451 5445 5439 5434 5430 5427 5425 5423 5421 5418 5415 5412 5410 5409 5409 5410 5412 5414 5416 5419 5423 5427
5601 5592 5581 5571 5560 5549 5539 5529 5519 5508 5499 5490 5478 5468 5457 5445 5438 5432 5426 5421 5418 5416 5413 5411 5409 5405 5401 5398 5396 5395 5395 5396 5398 5400 5403 5406 5409 5413
5584 5574 5564 5554 5543 5532 5522 5513 5502 5492 5482 5473 5465 5454 5443 5433 5427 5420 5415 5411 5407 5404 5402 5399 5395 5392 5389 5386 5384 5383 5383 5384 5386 5387 5389 5391 5394 5398
5569 5558 5548 5537 5527 5516 5506 5496 5487 5477 5467 5458 5449 5439 5429 5422 5416 5411 5406 5400 5398 5394 5391 5387 5384 5381 5377 5374 5373 5371 5371 5372 5374 5375 5376 5377 5379 5381
5551 5541 5530 5520 5510 5499 5490 5480 5470 5462 5453 5444 5434 5425 5416 5410 5405 5400 5396 5392 5389 5384 5381 5377 5373 5369 5366 5364 5362 5362 5361 5362 5362 5363 5364 5365 5366 5368
5536 5524 5512 5502 5491 5481 5472 5465 5455 5445 5437 5428 5419 5411 5405 5400 5395 5390 5386 5383 5381 5376 5374 5370 5363 5358 5355 5353 5353 5353 5353 5353 5352 5352 5352 5352 5352 5354
5518 5505 5494 5483 5472 5464 5456 5448 5439 5429 5420 5411 5405 5398 5394 5389 5385 5381 5377 5374 5370 5366 5365 5363 5355 5349 5346 5344 5343 5343 5343 5342 5340 5340 5339 5339 5339 5339
5500 5487 5475 5466 5454 5445 5440 5431 5421 5412 5403 5396 5390 5385 5381 5378 5375 5371 5368 5365 5362 5357 5355 5354 5347 5342 5337 5335 5334 5335 5333 5331 5329 5328 5326 5325 5324 5325
5482 5468 5455 5446 5437 5427 5421 5412 5403 5394 5386 5381 5376 5372 5370 5367 5365 5362 5359 5356 5354 5350 5345 5343 5338 5335 5328 5326 5326 5326 5323 5320 5317 5315 5314 5313 5312 5312
5465 5452 5438 5424 5417 5408 5399 5391 5385 5376 5371 5366 5362 5360 5358 5357 5355 5353 5350 5348 5345 5343 5338 5336 5330 5327 5324 5317 5317 5316 5314 5310 5307 5305 5303 5302 5300 5299
5441 5434 5422 5405 5396 5389 5380 5374 5368 5362 5357 5353 5350 5348 5347 5346 5346 5344 5341 5339 5336 5333 5330 5328 5323 5318 5316 5313 5307 5306 5303 5300 5298 5296 5294 5293 5291 5288
5417 5408 5400 5387 5378 5371 5365 5360 5355 5350 5346 5342 5339 5337 5336 5336 5336 5334 5332 5330 5328 5326 5322 5319 5315 5309 5307 5306 5303 5298 5294 5293 5290 5288 5287 5285 5284 5281
5396 5386 5378 5370 5361 5355 5349 5346 5343 5339 5336 5333 5329 5328 5326 5326 5326 5326 5324 5322 5319 5317 5315 5312 5308 5303 5299 5298 5296 5292 5288 5284 5284 5281 5281 5279 5277 5274
5377 5367 5359 5352 5344 5339 5334 5331 5330 5328 5324 5322 5320 5318 5317 5317 5318 5317 5316 5314 5312 5309 5307 5305 5302 5297 5293 5291 5289 5284 5282 5279 5276 5275 5275 5273 5271 5267
5360 5349 5341 5334 5328 5324 5321 5319 5317 5316 5313 5310 5309 5309 5308 5309 5309 5309 5308 5307 5305 5303 5299 5296 5294 5291 5287 5284 5282 5279 5275 5273 5270 5269 5269 5268 5265 5261
5339 5332 5325 5319 5315 5312 5309 5307 5306 5303 5301 5299 5299 5299 5299 5300 5301 5301 5301 5300 5298 5296 5294 5291 5288 5284 5282 5280 5277 5273 5271 5268 5266 5265 5263 5262 5260 5258
5323 5316 5311 5306 5303 5300 5298 5296 5294 5292 5290 5289 5289 5290 5291 5292 5293 5293 5293 5292 5291 5289 5288 5286 5283 5280 5276 5274 5272 5269 5267 5265 5264 5262 5261 5259 5257 5255
5310 5305 5300 5296 5293 5290 5287 5285 5283 5282 5281 5280 5280 5281 5283 5284 5285 5285 5286 5285 5284 5283 5282 5280 5278 5275 5272 5270 5268 5266 5264 5262 5261 5259 5258 5256 5254 5253
5300 5294 5289 5285 5282 5279 5277 5275 5273 5272 5272 5272 5272 5273 5275 5276 5277 5278 5279 5279 5278 5277 5276 5274 5273 5271 5268 5266 5265 5263 5261 5259 5258 5257 5255 5254 5252 5252
5287 5282 5278 5274 5269 5267 5265 5264 5263 5263 5263 5263 5263 5265 5267 5269 5270 5271 5271 5272 5271 5271 5270 5269 5268 5267 5264 5262 5261 5260 5258 5256 5255 5254 5253 5252 5252 5252
5274 5268 5262 5258 5255 5253 5252 5252 5252 5252 5253 5254 5255 5257 5259 5261 5262 5263 5265 5265 5265 5265 5265 5264 5263 5262 5261 5259 5258 5257 5256 5254 5253 5252 5252 5251 5251 5252